Вернуться в каталог

THOR ABLESTAR DEB

АктивенLEO
NORAD 408·DEBRIS·🇺🇸 United States

Запущен Jun 29, 1961 с Cape Canaveral Space Force Station

Loading…

Ближайшие Пролёты (ближайшие 24 часа)

TLE

СвежийSource: Space-Track

Эпоха: Sep 14, 2026, 11:20 UTC

1 00408U 61015EH  26257.47265199  .00000238  00000-0  31038-3 0  9991
2 00408  66.7837 256.0626 0057996  58.3187  19.7166 13.77219969317999

Отслеживайте THOR ABLESTAR DEB в реальном времени с AllMySat

Download on the App Store